Regional Weather Roundup
Issued by NWS

Home | Current Version | Previous Version | Text Only | Print | Product List | Glossary Off
Versions: 1 2 3 4 5 6 7 8 9 10 11 12 13 14 15 16 17 18 19 20 21 22 23 24 25 26 27 28 29 30 31 32 33 34 35 36 37 38 39 40 41 42 43 44 45 46 47 48 49 50

000
ASUS43 KFSD 200002
RWRSD

WEATHER ROUNDUP FOR SOUTH DAKOTA
NATIONAL WEATHER SERVICE SIOUX FALLS SD
700 PM CDT SAT AUG 19 2017

NOTE: "FAIR" INDICATES FEW OR NO CLOUDS BELOW 12,000 FEET WITH NO
SIGNIFICANT WEATHER AND/OR OBSTRUCTIONS TO VISIBILITY.


SDZ001>005-009-010-012>017-200100-
NORTHWEST AND NORTH CENTRAL SOUTH DAKOTA

CITY           SKY/WX    TMP DP  RH WIND       PRES   REMARKS
BUFFALO          N/A     83  46  27 NW6       29.82S
FAITH            N/A     87  41  19 N17       29.82R
MOBRIDGE       CLOUDY    83  71  67 S5        29.73S
$$

SDZ012>016-024>037-041>051-057-063-072>074-200100-
SOUTHWEST AND SOUTH CENTRAL SOUTH DAKOTA

CITY           SKY/WX    TMP DP  RH WIND       PRES   REMARKS
RAPID CTY ARPT SUNNY     90  43  19 N21       29.85R
PIERRE         SUNNY     89  63  41 SE9       29.73S
CUSTER         MOSUNNY   79  43  27 NE13      30.03R
ELLSWORTH AFB  MOSUNNY   89  41  18 N18G25    29.85S
PHILIP         SUNNY     99  38  12 N12       29.74F
PINE RIDGE     SUNNY     92  45  19 SE7       29.85S
SPEARFISH      FAIR      82  37  20 NW9       29.95S
WINNER         FAIR      88  70  55 E12       29.76F
$$

SDZ004>011-016>023-039-040-200100-
NORTHEAST SOUTH DAKOTA

CITY           SKY/WX    TMP DP  RH WIND       PRES   REMARKS
ABERDEEN       SUNNY     79  64  60 S13       29.76F
WATERTOWN      SUNNY     75  64  68 S10       29.81F
BROOKINGS      SUNNY     76  64  66 S9        29.85S
SISSETON         N/A     77  65  66 SE9       29.77F
$$

SDZ017-020-022-023-036>040-048>070-200100-
SOUTHEAST SOUTH DAKOTA

CITY           SKY/WX    TMP DP  RH WIND       PRES   REMARKS
SIOUX FALLS    PTSUNNY   79  64  60 S12G21    29.84F
HURON          SUNNY     80  65  59 S13       29.78F
CHAMBERLAIN    SUNNY     85  70  61 E10       29.76F
MITCHELL       SUNNY     81  65  58 SE13      29.80F
YANKTON        CLOUDY    80  65  59 SE12      29.83S
$$

ABBREVIATIONS USED IN REMARKS
   TC - TEMPERATURE IN CELSIUS
  WCI - WIND CHILL INDEX
   HX - HEAT INDEX
  VSB - VISIBILITY





USA.gov is the U.S. government's official web portal to all federal, state and local government web resources and services.